Fairhope, AL

1:03 AM CST on February 09, 2016 (GMT -0600)
Fairhope

Weather History for KCQF - January, 2013

Change the Weather History Date:

Sunday, January 13, 2013

  Actual Average (KBFM) Record (KBFM)
Temperature  
Mean Temperature 74 °F -  
Max Temperature 77 °F 58 °F 79 °F (2000)
Min Temperature 71 °F 39 °F 21 °F (2011)
Cooling Degree Days 9    
Growing Degree Days 24 (Base 50)    
Moisture  
Dew Point 70 °F    
Average Humidity 90    
Maximum Humidity 94    
Minimum Humidity 78    
Precipitation  
Precipitation 0.00 in - - ()
Sea Level Pressure  
Sea Level Pressure 30.00 in    
Wind  
Wind Speed 14 mph (SSE)    
Max Wind Speed 20 mph    
Max Gust Speed 26 mph    
Visibility 6 miles    
Events      
Averages and records for this station are not official NWS values.
T = Trace of Precipitation, MM = Missing Value Source: NWS Daily Summary

Daily Weather History Graph

Daily Weather History Graph

Search for Another Location

Airport or City:

Trip Planner

Search our weather history database for the weather conditions in past years. The results will help you decide how hot, cold, wet, or windy it might be!

Date:

Astronomy

Jan. 13, 2013 Rise Set
Actual Time 6:49 AM CST 5:11 PM CST
Civil Twilight 6:23 AM CST 5:37 PM CST
Nautical Twilight 5:53 AM CST 6:07 PM CST
Astronomical Twilight 5:24 AM CST 6:36 PM CST
Moon 7:59 AM CST (1/13) 7:36 PM CST (1/13)
Length of Visible Light 11h 14m
Length of Day
10h 22m
Waxing Crescent, 5% of the Moon is Illuminated
Jan 13
Waxing Crescent
Jan 18
First Quarter
Jan 26
Full
Feb 3
Last Quarter
Feb 10
New

Hourly Weather History & Observations

Time (CST) Temp. Dew Point Humidity Pressure Visibility Wind Dir Wind Speed Gust Speed Precip Events Conditions
12:35 AM 71.6 °F 69.8 °F 94% 30.00 in 7.0 mi SSE 13.8 mph 20.7 mph N/A   Overcast
1:15 AM 71.6 °F 69.8 °F 94% 30.00 in 5.0 mi SE 15.0 mph 21.9 mph N/A   Overcast
1:35 AM 71.6 °F 69.8 °F 94% 29.99 in 5.0 mi SSE 15.0 mph - N/A   Overcast
2:15 AM 71.6 °F 69.8 °F 94% 29.97 in 7.0 mi SE 15.0 mph 21.9 mph N/A   Overcast
2:35 AM 71.6 °F 69.8 °F 94% 29.97 in 7.0 mi SSE 16.1 mph 21.9 mph N/A   Overcast
3:15 AM 71.6 °F 69.8 °F 94% 29.96 in 7.0 mi SSE 15.0 mph 20.7 mph N/A   Overcast
3:35 AM 71.6 °F 69.8 °F 94% 29.97 in 7.0 mi SSE 15.0 mph 20.7 mph N/A   Mostly Cloudy
3:55 AM 71.6 °F 69.8 °F 94% 29.97 in 7.0 mi SSE 16.1 mph 21.9 mph N/A   Overcast
4:15 AM 71.6 °F 69.8 °F 94% 29.97 in 7.0 mi SSE 13.8 mph 20.7 mph N/A   Overcast
4:35 AM 71.6 °F 69.8 °F 94% 29.97 in 7.0 mi SSE 13.8 mph - N/A   Overcast
4:55 AM 71.6 °F 69.8 °F 94% 29.97 in 5.0 mi SSE 16.1 mph 21.9 mph N/A   Mostly Cloudy
5:15 AM 71.6 °F 69.8 °F 94% 29.98 in 7.0 mi SSE 11.5 mph 18.4 mph N/A   Mostly Cloudy
5:35 AM 71.6 °F 69.8 °F 94% 29.98 in 5.0 mi SSE 10.4 mph 19.6 mph N/A   Overcast
6:15 AM 71.6 °F 69.8 °F 94% 29.98 in 5.0 mi SSE 12.7 mph 18.4 mph N/A   Overcast
6:35 AM 71.6 °F 69.8 °F 94% 29.99 in 5.0 mi SSE 11.5 mph - N/A   Overcast
6:55 AM 71.6 °F 69.8 °F 94% 29.99 in 5.0 mi SSE 10.4 mph - N/A   Overcast
7:15 AM 71.6 °F 69.8 °F 94% 30.00 in 4.0 mi SSE 11.5 mph 18.4 mph N/A   Overcast
7:35 AM 71.6 °F 69.8 °F 94% 30.00 in 5.0 mi SSE 15.0 mph - N/A   Mostly Cloudy
7:55 AM 71.6 °F 69.8 °F 94% 30.00 in 5.0 mi SSE 17.3 mph - N/A   Scattered Clouds
8:15 AM 71.6 °F 69.8 °F 94% 30.00 in 5.0 mi SSE 17.3 mph 21.9 mph N/A   Scattered Clouds
8:35 AM 73.4 °F 69.8 °F 88% 30.00 in 5.0 mi SSE 17.3 mph 23.0 mph N/A   Clear
8:55 AM 73.4 °F 69.8 °F 88% 30.01 in 7.0 mi SSE 17.3 mph 25.3 mph N/A   Clear
9:15 AM 73.4 °F 69.8 °F 88% 30.01 in 7.0 mi SSE 19.6 mph 23.0 mph N/A   Clear
9:35 AM 73.4 °F 69.8 °F 88% 30.02 in 7.0 mi SSE 17.3 mph - N/A   Clear
10:15 AM 75.2 °F 69.8 °F 83% 30.00 in 7.0 mi SSE 19.6 mph 26.5 mph N/A   Clear
10:35 AM 75.2 °F 69.8 °F 83% 30.00 in 7.0 mi SSE 18.4 mph 25.3 mph N/A   Clear
10:55 AM 77.0 °F 69.8 °F 78% 30.02 in 7.0 mi SSE 18.4 mph 23.0 mph N/A   Scattered Clouds
11:15 AM 77.0 °F 69.8 °F 78% 30.01 in 5.0 mi SSE 19.6 mph 25.3 mph N/A   Haze
11:35 AM 75.2 °F 69.8 °F 83% 30.01 in 5.0 mi SSE 16.1 mph 24.2 mph N/A   Haze
12:15 PM 77.0 °F 69.8 °F 78% 29.99 in 7.0 mi SSE 16.1 mph 25.3 mph N/A   Mostly Cloudy
12:35 PM 77.0 °F 69.8 °F 78% 29.98 in 7.0 mi SSE 16.1 mph 24.2 mph N/A   Overcast
12:55 PM 77.0 °F 69.8 °F 78% 29.99 in 7.0 mi SSE 13.8 mph 21.9 mph N/A   Overcast
1:15 PM 75.2 °F 69.8 °F 83% 29.99 in 5.0 mi SSE 16.1 mph 20.7 mph N/A   Haze
1:35 PM 75.2 °F 69.8 °F 83% 29.99 in 5.0 mi SSE 17.3 mph 23.0 mph N/A   Haze
2:15 PM 77.0 °F 69.8 °F 78% 29.98 in 5.0 mi SSE 17.3 mph 24.2 mph N/A   Haze
2:35 PM 75.2 °F 69.8 °F 83% 29.98 in 7.0 mi SSE 15.0 mph - N/A   Overcast
2:55 PM 75.2 °F 69.8 °F 83% 29.98 in 5.0 mi SSE 13.8 mph 24.2 mph N/A   Haze
3:15 PM 75.2 °F 69.8 °F 83% 29.98 in 5.0 mi SSE 15.0 mph 23.0 mph N/A   Haze
3:35 PM 77.0 °F 69.8 °F 78% 29.98 in 5.0 mi SSE 17.3 mph 26.5 mph N/A   Haze
4:15 PM 75.2 °F 69.8 °F 83% 29.99 in 7.0 mi SSE 15.0 mph - N/A   Overcast
4:35 PM 73.4 °F 69.8 °F 88% 30.00 in 5.0 mi SSE 13.8 mph 19.6 mph N/A   Overcast
4:55 PM 73.4 °F 69.8 °F 88% 30.01 in 5.0 mi SSE 15.0 mph - N/A   Overcast
5:15 PM 73.4 °F 69.8 °F 88% 30.00 in 5.0 mi SSE 12.7 mph - N/A   Overcast
5:35 PM 71.6 °F 69.8 °F 94% 30.00 in 5.0 mi SSE 13.8 mph 18.4 mph N/A   Mostly Cloudy
5:55 PM 71.6 °F 69.8 °F 94% 30.01 in 7.0 mi SSE 12.7 mph - N/A   Mostly Cloudy
6:15 PM 71.6 °F 69.8 °F 94% 30.01 in 7.0 mi SE 12.7 mph 16.1 mph N/A   Scattered Clouds
6:35 PM 71.6 °F 69.8 °F 94% 30.01 in 7.0 mi SSE 11.5 mph - N/A   Mostly Cloudy
6:55 PM 71.6 °F 69.8 °F 94% 30.02 in 7.0 mi SSE 11.5 mph - N/A   Mostly Cloudy
7:15 PM 71.6 °F 69.8 °F 94% 30.02 in 7.0 mi SSE 11.5 mph - N/A   Mostly Cloudy
7:55 PM 71.6 °F 69.8 °F 94% 30.02 in 5.0 mi SSE 9.2 mph - N/A   Mostly Cloudy
8:15 PM 71.6 °F 69.8 °F 94% 30.02 in 7.0 mi SSE 12.7 mph - N/A   Overcast
8:35 PM 71.6 °F 69.8 °F 94% 30.02 in 5.0 mi SSE 11.5 mph - N/A   Mostly Cloudy
9:15 PM 71.6 °F 69.8 °F 94% 30.02 in 7.0 mi SSE 10.4 mph - N/A   Mostly Cloudy
9:55 PM 71.6 °F 69.8 °F 94% 30.02 in 5.0 mi SSE 11.5 mph - N/A   Mostly Cloudy
10:15 PM 71.6 °F 69.8 °F 94% 30.02 in 5.0 mi SSE 10.4 mph - N/A   Mostly Cloudy
10:35 PM 71.6 °F 69.8 °F 94% 30.02 in 5.0 mi SSE 10.4 mph - N/A   Overcast
10:55 PM 71.6 °F 69.8 °F 94% 30.02 in 5.0 mi SSE 10.4 mph - N/A   Overcast
11:15 PM 71.6 °F 69.8 °F 94% 30.02 in 5.0 mi SSE 10.4 mph - N/A   Overcast
11:35 PM 71.6 °F 69.8 °F 94% 30.02 in 5.0 mi SSE 10.4 mph - N/A   Overcast
11:55 PM 71.6 °F 69.8 °F 94% 30.02 in 7.0 mi SSE 8.1 mph - N/A   Overcast